timestamp,surface_pressure_avg,surface_temp_avg,battery_voltage,lat,long
2020-01-01 00:09:01+00:00,249.6431,2.0,12.81,47.84626,-54.09684
2020-01-01 00:19:01+00:00,247.668,2.0,12.73,47.84626,-54.09684
2020-01-01 00:29:01+00:00,252.6747,2.0,12.73,47.84626,-54.09684
2020-01-01 00:39:01+00:00,258.3064,2.01,12.73,47.84626,-54.09684
2020-01-01 00:49:01+00:00,254.7514,2.07,12.73,47.84626,-54.09684
2020-01-01 00:59:01+00:00,251.6597,2.09,12.73,47.84626,-54.09684
2020-01-01 01:09:01+00:00,263.7598,2.08,12.73,47.84626,-54.09684
2020-01-01 01:19:01+00:00,278.5264,2.09,12.73,47.84626,-54.09684
2020-01-01 01:29:01+00:00,278.1748,2.1,12.73,47.84626,-54.09684
2020-01-01 01:39:01+00:00,275.6697,2.07,12.73,47.84626,-54.09684
2020-01-01 01:49:01+00:00,282.918,2.07,12.73,47.84626,-54.09684
2020-01-01 01:59:01+00:00,287.7947,2.09,12.73,47.84626,-54.09684
2020-01-01 02:09:01+00:00,285.0464,2.1,12.73,47.84626,-54.09684
2020-01-01 02:19:01+00:00,287.0831,2.1,12.73,47.84626,-54.09684
2020-01-01 02:29:01+00:00,299.70799999999997,2.1,12.73,47.84626,-54.09684
2020-01-01 02:39:01+00:00,301.198,2.1,12.73,47.84626,-54.09684
2020-01-01 02:49:01+00:00,294.248,2.1,12.73,47.84626,-54.09684
2020-01-01 02:59:01+00:00,298.673,2.1,12.73,47.84626,-54.09684
2020-01-01 03:09:01+00:00,313.1847,2.1,12.73,47.84626,-54.09684
2020-01-01 03:19:01+00:00,317.7579,2.1,12.73,47.84626,-54.09684
2020-01-01 03:29:01+00:00,311.6063,2.1,12.73,47.84626,-54.09684
2020-01-01 03:39:01+00:00,312.6213,2.1,12.73,47.84626,-54.09684
2020-01-01 03:49:01+00:00,319.8731,2.1,12.73,47.84626,-54.09684
2020-01-01 03:59:01+00:00,312.1896,2.1,12.73,47.84626,-54.09684
2020-01-01 04:09:01+00:00,306.0115,2.1,12.73,47.84626,-54.09684
2020-01-01 04:19:01+00:00,310.653,2.1,12.65,47.84626,-54.09684
2020-01-01 04:29:01+00:00,313.8247,2.1,12.65,47.84626,-54.09684
2020-01-01 04:39:01+00:00,309.8913,2.1,12.65,47.84626,-54.09684
2020-01-01 04:49:01+00:00,307.3163,2.11,12.65,47.84626,-54.09684
2020-01-01 04:59:01+00:00,305.3529,2.1,12.65,47.84626,-54.09684
2020-01-01 05:09:01+00:00,301.4147,2.1,12.65,47.84626,-54.09684
2020-01-01 05:19:01+00:00,302.5031,2.11,12.65,47.84626,-54.09684
2020-01-01 05:29:01+00:00,308.4147,2.13,12.65,47.84626,-54.09684
2020-01-01 05:39:01+00:00,310.7047,2.16,12.65,47.84626,-54.09684
2020-01-01 05:49:01+00:00,309.7664,2.19,12.65,47.84626,-54.09684
2020-01-01 05:59:01+00:00,305.803,2.2,12.65,47.84626,-54.09684
2020-01-01 06:09:01+00:00,295.5514,2.2,12.65,47.84626,-54.09684
2020-01-01 06:19:01+00:00,290.4314,2.2,12.65,47.84626,-54.09684
2020-01-01 06:29:01+00:00,288.598,2.2,12.65,47.84626,-54.09684
2020-01-01 06:39:01+00:00,282.9331,2.2,12.65,47.84626,-54.09684
2020-01-01 06:49:01+00:00,272.4998,2.19,12.65,47.84626,-54.09684
2020-01-01 06:59:01+00:00,262.6214,2.19,12.65,47.84626,-54.09684
2020-01-01 07:09:01+00:00,257.6431,2.2,12.65,47.84626,-54.09684
2020-01-01 07:19:01+00:00,251.2848,2.2,12.65,47.84626,-54.09684
2020-01-01 07:29:01+00:00,248.9015,2.2,12.65,47.84626,-54.09684
2020-01-01 07:39:01+00:00,246.3797,2.2,12.65,47.84626,-54.09684
2020-01-01 07:49:01+00:00,236.9198,2.2,12.65,47.84626,-54.09684
2020-01-01 07:59:01+00:00,224.5464,2.2,12.65,47.84626,-54.09684
2020-01-01 08:09:01+00:00,225.7447,2.2,12.65,47.84626,-54.09684
2020-01-01 08:19:01+00:00,231.0397,2.2,12.65,47.84626,-54.09684
2020-01-01 08:29:01+00:00,219.8331,2.2,12.65,47.84626,-54.09684
2020-01-01 08:39:01+00:00,205.4948,2.2,12.65,47.84626,-54.09684
2020-01-01 08:49:01+00:00,204.4814,2.2,12.65,47.84626,-54.09684
2020-01-01 08:59:01+00:00,208.8448,2.2,12.65,47.84626,-54.09684
2020-01-01 09:09:01+00:00,203.7748,2.2,12.65,47.84626,-54.09684
2020-01-01 09:19:01+00:00,201.4998,2.14,12.65,47.84626,-54.09684
2020-01-01 09:29:01+00:00,209.1981,2.13,12.65,47.84626,-54.09684
2020-01-01 09:39:01+00:00,208.5481,2.17,12.65,47.84626,-54.09684
2020-01-01 09:49:01+00:00,204.2564,2.16,12.65,47.84626,-54.09684
2020-01-01 09:59:01+00:00,209.9348,2.16,12.65,47.84626,-54.09684
2020-01-01 10:09:01+00:00,215.5031,2.17,12.65,47.84626,-54.09684
2020-01-01 10:19:01+00:00,213.3514,2.19,12.65,47.84626,-54.09684
2020-01-01 10:29:01+00:00,216.2481,2.2,12.65,47.84626,-54.09684
2020-01-01 10:39:01+00:00,226.9897,2.2,12.65,47.84626,-54.09684
2020-01-01 10:49:01+00:00,230.2331,2.2,12.65,47.84626,-54.09684
2020-01-01 10:59:01+00:00,231.9247,2.2,12.65,47.84626,-54.09684
2020-01-01 11:09:01+00:00,244.5798,2.2,12.65,47.84626,-54.09684
2020-01-01 11:19:01+00:00,254.1831,2.2,12.65,47.84626,-54.09684
2020-01-01 11:29:01+00:00,253.9714,2.2,12.65,47.84626,-54.09684
2020-01-01 11:39:01+00:00,251.6964,2.2,12.65,47.84626,-54.09684
2020-01-01 11:49:01+00:00,260.403,2.2,12.65,47.84626,-54.09684
2020-01-01 11:59:01+00:00,261.6997,2.2,12.65,47.84626,-54.09684
2020-01-01 12:09:01+00:00,257.0164,2.2,12.65,47.84626,-54.09684
2020-01-01 12:19:01+00:00,261.3797,2.2,12.57,47.84626,-54.09684
2020-01-01 12:29:01+00:00,274.2197,2.2,12.57,47.84626,-54.09684
2020-01-01 12:39:01+00:00,275.1914,2.0,12.57,47.84626,-54.09684
2020-01-01 12:49:01+00:00,274.4747,2.09,12.57,47.84626,-54.09684
2020-01-01 12:59:01+00:00,282.863,2.12,12.57,47.84626,-54.09684
2020-01-01 13:09:01+00:00,291.8047,2.17,12.57,47.84626,-54.09684
2020-01-01 13:19:01+00:00,291.5313,2.18,12.57,47.84626,-54.09684
2020-01-01 13:29:01+00:00,297.7581,2.2,12.57,47.84626,-54.09684
2020-01-01 13:39:01+00:00,308.1414,2.2,12.57,47.84626,-54.09684
2020-01-01 13:49:01+00:00,319.1564,2.19,12.57,47.84626,-54.09684
2020-01-01 13:59:01+00:00,323.0763,2.2,12.57,47.84626,-54.09684
2020-01-01 14:09:01+00:00,332.1346,2.2,12.57,47.84626,-54.09684
2020-01-01 14:19:01+00:00,339.1446,2.17,12.57,47.84626,-54.09684
2020-01-01 14:29:01+00:00,348.7479,2.12,12.57,47.84626,-54.09684
2020-01-01 14:39:01+00:00,356.7296,2.1,12.57,47.84626,-54.09684
2020-01-01 14:49:01+00:00,361.00300000000004,2.1,12.57,47.84626,-54.09684
2020-01-01 14:59:01+00:00,358.1646,2.1,12.57,47.84626,-54.09684
2020-01-01 15:09:01+00:00,353.3414,2.1,12.57,47.84626,-54.09684
2020-01-01 15:19:01+00:00,354.3829,2.1,12.57,47.84626,-54.09684
2020-01-01 15:29:01+00:00,362.3296,2.1,12.57,47.84626,-54.09684
2020-01-01 15:39:01+00:00,359.1346,2.09,12.57,47.84626,-54.09684
2020-01-01 15:49:01+00:00,358.398,2.1,12.57,47.84626,-54.09684
2020-01-01 15:59:01+00:00,371.0029,2.1,12.57,47.84626,-54.09684
2020-01-01 16:09:01+00:00,369.6597,2.03,12.57,47.84626,-54.09684
2020-01-01 16:19:01+00:00,357.1363,2.0,12.57,47.84626,-54.09684
2020-01-01 16:29:01+00:00,359.4196,2.0,12.57,47.84626,-54.09684
2020-01-01 16:39:01+00:00,363.0747,2.0,12.57,47.84626,-54.09684
2020-01-01 16:49:01+00:00,356.9012,2.0,12.57,47.84626,-54.09684
2020-01-01 16:59:01+00:00,347.55800000000005,2.0,12.57,47.84626,-54.09684
2020-01-01 17:09:01+00:00,346.3947,2.0,12.57,47.84626,-54.09684
2020-01-01 17:19:01+00:00,348.5314,2.0,12.57,47.84626,-54.09684
2020-01-01 17:29:01+00:00,343.6779,2.0,12.57,47.84626,-54.09684
2020-01-01 17:39:01+00:00,341.3797,1.99,12.57,47.84626,-54.09684
2020-01-01 17:49:01+00:00,344.848,1.97,12.57,47.84626,-54.09684
2020-01-01 17:59:01+00:00,344.55300000000005,1.94,12.57,47.84626,-54.09684
2020-01-01 18:09:01+00:00,334.0213,1.9,12.57,47.84626,-54.09684
2020-01-01 18:19:01+00:00,324.3613,1.94,12.57,47.84626,-54.09684
2020-01-01 18:29:01+00:00,319.0513,2.0,12.57,47.84626,-54.09684
2020-01-01 18:39:01+00:00,316.1163,2.0,12.57,47.84626,-54.09684
2020-01-01 18:49:01+00:00,312.7847,2.0,12.57,47.84626,-54.09684
2020-01-01 18:59:01+00:00,299.2081,2.0,12.57,47.84626,-54.09684
2020-01-01 19:09:01+00:00,291.8181,2.0,12.57,47.84626,-54.09684
2020-01-01 19:19:01+00:00,291.9081,2.0,12.57,47.84626,-54.09684
2020-01-01 19:29:01+00:00,287.2514,2.0,12.57,47.84626,-54.09684
2020-01-01 19:39:01+00:00,278.3264,2.0,12.57,47.84626,-54.09684
2020-01-01 19:49:01+00:00,270.5564,2.0,12.57,47.84626,-54.09684
2020-01-01 19:59:01+00:00,263.1214,2.0,12.57,47.84626,-54.09684
2020-01-01 20:09:01+00:00,255.4731,2.0,12.57,47.84626,-54.09684
2020-01-01 20:19:01+00:00,252.938,2.0,12.57,47.84626,-54.09684
2020-01-01 20:29:01+00:00,246.9715,2.0,12.57,47.84626,-54.09684
2020-01-01 20:39:01+00:00,239.3364,2.0,12.57,47.84626,-54.09684
2020-01-01 20:49:01+00:00,235.4381,2.0,12.57,47.84626,-54.09684
2020-01-01 20:59:01+00:00,232.1931,2.0,12.57,47.84626,-54.09684
2020-01-01 21:09:01+00:00,228.7281,2.0,12.57,47.84626,-54.09684
2020-01-01 21:19:01+00:00,227.1631,2.0,12.57,47.84626,-54.09684
2020-01-01 21:29:01+00:00,228.8748,2.0,12.57,47.84626,-54.09684
2020-01-01 21:39:01+00:00,232.0597,2.0,12.57,47.84626,-54.09684
2020-01-01 21:49:01+00:00,233.7148,2.0,12.57,47.84626,-54.09684
2020-01-01 21:59:01+00:00,236.4664,2.0,12.57,47.84626,-54.09684
2020-01-01 22:09:01+00:00,241.9164,2.0,12.57,47.84626,-54.09684
2020-01-01 22:19:01+00:00,244.2381,2.0,12.57,47.84626,-54.09684
2020-01-01 22:29:01+00:00,242.0664,2.0,12.57,47.84626,-54.09684
2020-01-01 22:39:01+00:00,240.5848,2.0,12.57,47.84626,-54.09684
2020-01-01 22:49:01+00:00,246.4581,2.02,12.57,47.84626,-54.09684
2020-01-01 22:59:01+00:00,250.1464,2.05,12.57,47.84626,-54.09684
2020-01-01 23:09:01+00:00,249.1964,2.08,12.57,47.84626,-54.09684
2020-01-01 23:19:01+00:00,248.4064,2.08,12.57,47.84626,-54.09684
2020-01-01 23:29:01+00:00,253.6364,2.07,12.57,47.84626,-54.09684
2020-01-01 23:39:01+00:00,257.6198,2.07,12.57,47.84626,-54.09684
2020-01-01 23:49:01+00:00,256.1097,2.07,12.57,47.84626,-54.09684
2020-01-01 23:59:01+00:00,252.8515,2.06,12.57,47.84626,-54.09684
